FW6831 Weather Reports


Display with metric or nautical units.
time (UTC)temp
F
wind
direction
speed
MPH
gust
MPH
rain 1hr
in
rain 24hr
in
rain mn
in
humidity
%
barometer
mb
20260903082045 75 0 0.0 3.0 0.00 0.00 0.00 70 1017.1
20260903081605 75 0 0.0 2.0 0.00 0.00 0.00 70 1017.1
20260903081044 75 0 0.0 2.0 0.00 0.00 0.00 70 1017.1
20260903080547 76 0 0.0 3.0 0.00 0.00 0.00 69 1017.1
20260903080057 76 0 0.0 3.0 0.00 0.00 0.00 69 1017.0
20260903075545 76 0 0.0 3.0 0.00 0.00 0.00 69 1017.1
20260903075044 76 0 0.0 4.0 0.00 0.00 0.00 68 1017.0
20260903074606 76 0 0.0 4.0 0.00 0.00 0.00 68 1016.8
20260903074044 76 330 0.0 1.0 0.00 0.00 0.00 67 1016.8
20260903073545 77 0 0.0 1.0 0.00 0.00 0.00 67 1016.8
20260903073106 77 0 0.0 1.0 0.00 0.00 0.00 66 1016.8
20260903072544 77 0 0.0 0.0 0.00 0.00 0.00 65 1016.7
20260903072048 78 0 0.0 0.0 0.00 0.00 0.00 65 1016.6
20260903071600 78 0 0.0 3.0 0.00 0.00 0.00 64 1016.6
20260903071044 79 0 0.0 3.0 0.00 0.00 0.00 63 1016.5
20260903070544 79 0 0.0 2.0 0.00 0.00 0.00 63 1016.6
20260903070059 79 0 0.0 2.0 0.00 0.00 0.00 62 1016.7
20260903065545 79 228 0.0 1.0 0.00 0.00 0.00 61 1016.5
20260903065044 80 0 0.0 5.0 0.00 0.00 0.00 61 1016.5
20260903064601 80 0 0.0 5.0 0.00 0.00 0.00 60 1016.5
20260903064044 80 345 0.0 5.0 0.00 0.00 0.00 59 1016.5
20260903063545 81 0 0.0 5.0 0.00 0.00 0.00 59 1016.4
20260903063101 81 0 0.0 3.0 0.00 0.00 0.00 59 1016.4
20260903062548 81 0 0.0 4.0 0.00 0.00 0.00 58 1016.4
20260903062047 81 0 0.0 6.0 0.00 0.00 0.00 59 1016.4
20260903061600 82 152 0.0 6.0 0.00 0.00 0.00 59 1016.4
20260903061044 82 0 0.0 6.0 0.00 0.00 0.00 59 1016.4
20260903060544 82 0 0.0 2.0 0.00 0.00 0.00 59 1016.3
20260903060100 82 0 0.0 4.0 0.00 0.00 0.00 59 1016.3
20260903055544 82 0 0.0 6.0 0.00 0.00 0.00 59 1016.4
20260903055044 82 0 0.0 6.0 0.00 0.00 0.00 59 1016.4
20260903054557 82 0 0.0 6.0 0.00 0.00 0.00 58 1016.4
20260903054044 83 0 0.0 5.0 0.00 0.00 0.00 57 1016.4
20260903053546 83 79 0.0 3.0 0.00 0.00 0.00 55 1016.5
20260903053113 83 0 0.0 3.0 0.00 0.00 0.00 55 1016.4
20260903052545 83 0 0.0 8.0 0.00 0.00 0.00 55 1016.5
20260903052047 83 0 0.0 9.0 0.00 0.00 0.00 53 1016.5
20260903051557 83 0 1.0 9.0 0.00 0.00 0.00 56 1016.5
20260903051043 83 0 1.0 9.0 0.00 0.00 0.00 55 1016.5
20260903050548 83 96 0.0 5.0 0.00 0.00 0.00 55 1016.5
20260903050104 83 0 0.0 5.0 0.00 0.00 0.00 55 1016.5
20260903045544 83 0 0.0 5.0 0.00 0.00 0.00 54 1016.6
20260903045047 83 0 0.0 5.0 0.00 0.00 0.00 54 1016.7
20260903044605 84 0 0.0 3.0 0.00 0.00 0.00 54 1016.8
20260903044041 84 97 0.0 2.0 0.00 0.00 0.00 54 1016.8
20260903043545 84 0 0.0 2.0 0.00 0.00 0.00 54 1016.9
20260903043056 85 0 0.0 1.0 0.00 0.00 0.00 53 1017.0
20260903042545 84 0 0.0 2.0 0.00 0.00 0.00 54 1017.0
20260903042044 84 0 0.0 2.0 0.00 0.00 0.00 53 1017.1
20260903041554 84 0 0.0 1.0 0.00 0.00 0.00 54 1017.2
20260903041044 85 0 0.0 1.0 0.00 0.00 0.00 52 1017.1
20260903040544 85 0 0.0 1.0 0.00 0.00 0.00 53 1017.2
20260903040053 85 0 0.0 1.0 0.00 0.00 0.00 52 1017.3
20260903035544 84 0 0.0 1.0 0.00 0.00 0.00 52 1017.3
20260903035044 84 0 0.0 1.0 0.00 0.00 0.00 51 1017.3
20260903034559 84 0 0.0 1.0 0.00 0.00 0.00 52 1017.4
20260903034044 84 0 0.0 2.0 0.00 0.00 0.00 51 1017.3
20260903033543 83 0 0.0 2.0 0.00 0.00 0.00 51 1017.5
20260903033111 83 0 0.0 2.0 0.00 0.00 0.00 51 1017.5
20260903032545 83 13 0.0 1.0 0.00 0.00 0.00 51 1017.5
20260903032044 84 0 0.0 1.0 0.00 0.00 0.00 50 1017.6
20260903031554 84 0 0.0 1.0 0.00 0.00 0.00 50 1017.7
20260903031044 84 0 0.0 2.0 0.00 0.00 0.00 51 1017.8
20260903030544 84 0 0.0 2.0 0.00 0.00 0.00 49 1017.9
20260903030104 85 0 0.0 1.0 0.00 0.00 0.00 48 1018.0
20260903025543 86 0 0.0 1.0 0.00 0.00 0.00 47 1018.0
20260903025044 85 0 0.0 1.0 0.00 0.00 0.00 39 1018.1
20260903024601 86 0 0.0 1.0 0.00 0.00 0.00 41 1018.2
20260903024043 86 0 0.0 1.0 0.00 0.00 0.00 40 1018.2
20260903023543 85 0 0.0 1.0 0.00 0.00 0.00 39 1018.3
20260903023056 85 0 0.0 1.0 0.00 0.00 0.00 40 1018.5
20260903022540 85 0 0.0 0.0 0.00 0.00 0.00 40 1018.6
20260903022043 85 0 0.0 0.0 0.00 0.00 0.00 40 1018.7
20260903021606 85 0 0.0 0.0 0.00 0.00 0.00 44 1018.9
20260903021042 85 0 0.0 0.0 0.00 0.00 0.00 44 1018.8
20260903020543 84 0 0.0 0.0 0.00 0.00 0.00 46 1019.2
20260903020051 83 0 0.0 1.0 0.00 0.00 0.00 45 1019.2
20260903015544 82 0 0.0 1.0 0.00 0.00 0.00 46 1019.4
20260903015044 82 0 0.0 0.0 0.00 0.00 0.00 49 1019.5
20260903014551 82 0 0.0 0.0 0.00 0.00 0.00 50 1019.7
20260903014044 82 0 0.0 0.0 0.00 0.00 0.00 51 1019.7
20260903013543 82 0 0.0 2.0 0.00 0.00 0.00 51 1019.8
20260903013104 82 0 0.0 2.0 0.00 0.00 0.00 51 1019.8
20260903012543 81 0 0.0 2.0 0.00 0.00 0.00 51 1019.9
20260903012044 80 0 0.0 0.0 0.00 0.00 0.00 53 1020.1
20260903011555 80 0 0.0 0.0 0.00 0.00 0.00 54 1020.3
20260903011045 80 0 0.0 0.0 0.00 0.00 0.00 55 1020.4
20260903010543 81 0 0.0 0.0 0.00 0.00 0.00 53 1020.6
20260903010109 82 0 0.0 0.0 0.00 0.00 0.00 51 1020.7
20260903005544 82 0 0.0 0.0 0.00 0.00 0.00 52 1020.6
20260903005047 80 0 0.0 0.0 0.00 0.00 0.00 55 1020.7
20260903004604 79 0 0.0 0.0 0.00 0.00 0.00 55 1020.9
20260903004044 79 0 0.0 0.0 0.00 0.00 0.00 54 1020.9
20260903003543 78 0 0.0 0.0 0.00 0.00 0.00 57 1021.1
20260903003108 78 0 0.0 0.0 0.00 0.00 0.00 57 1021.1
20260903002544 79 0 0.0 0.0 0.00 0.00 0.00 58 1021.2
20260903002044 77 0 0.0 0.0 0.00 0.00 0.00 59 1021.1
20260903001554 77 0 0.0 0.0 0.00 0.00 0.00 60 1021.3
20260903001044 76 0 0.0 0.0 0.00 0.00 0.00 61 1021.4
20260903000544 76 0 0.0 0.0 0.00 0.00 0.00 63 1021.4
20260903000104 76 0 0.0 0.0 0.00 0.00 0.00 62 1021.5
20260902235544 75 0 0.0 0.0 0.00 0.00 0.00 64 1021.6
20260902235044 74 0 0.0 0.0 0.00 0.00 0.00 65 1021.6
20260902234602 74 0 0.0 0.0 0.00 0.00 0.00 65 1021.6
20260902234045 73 0 0.0 0.0 0.00 0.00 0.00 66 1021.5
20260902233544 73 0 0.0 0.0 0.00 0.00 0.00 67 1021.6
20260902233058 74 0 0.0 0.0 0.00 0.00 0.00 66 1021.5
20260902232540 73 0 0.0 0.0 0.00 0.00 0.00 68 1021.6
20260902232044 72 0 0.0 0.0 0.00 0.00 0.00 71 1021.6
20260902231555 71 0 0.0 0.0 0.00 0.00 0.00 71 1021.5
20260902231048 70 0 0.0 0.0 0.00 0.00 0.00 73 1021.7
20260902230547 70 0 0.0 0.0 0.00 0.00 0.00 74 1021.7
20260902230053 70 0 0.0 0.0 0.00 0.00 0.00 75 1021.8
20260902225543 69 0 0.0 0.0 0.00 0.00 0.00 76 1021.8
20260902225044 69 0 0.0 0.0 0.00 0.00 0.00 77 1021.8
20260902224558 68 0 0.0 0.0 0.00 0.00 0.00 78 1021.8
20260902224044 67 0 0.0 0.0 0.00 0.00 0.00 80 1022.0
20260902223544 67 0 0.0 0.0 0.00 0.00 0.00 80 1021.8
20260902223106 67 0 0.0 0.0 0.00 0.00 0.00 78 1021.8
20260902222544 67 0 0.0 0.0 0.00 0.00 0.00 81 1021.9
20260902222047 66 0 0.0 0.0 0.00 0.00 0.00 82 1021.9
20260902221616 65 0 0.0 0.0 0.00 0.00 0.00 83 1022.0
20260902221043 65 0 0.0 0.0 0.00 0.00 0.00 82 1021.8
20260902220543 65 0 0.0 0.0 0.00 0.00 0.00 82 1021.9
20260902220059 65 0 0.0 0.0 0.00 0.00 0.00 83 1021.9
20260902215544 65 0 0.0 0.0 0.00 0.00 0.00 84 1021.8
20260902215048 65 0 0.0 0.0 0.00 0.00 0.00 84 1021.6
20260902214554 64 0 0.0 0.0 0.00 0.00 0.00 88 1021.5
20260902214044 63 0 0.0 0.0 0.00 0.00 0.00 89 1021.4
20260902213545 62 0 0.0 0.0 0.00 0.00 0.00 90 1021.6
20260902213103 61 0 0.0 0.0 0.00 0.00 0.00 93 1021.6
20260902212544 61 0 0.0 0.0 0.00 0.00 0.00 95 1021.7
20260902212043 60 0 0.0 0.0 0.00 0.00 0.00 98 1021.7
20260902211610 59 0 0.0 0.0 0.00 0.00 0.00 98 1021.7
20260902211044 58 0 0.0 0.0 0.00 0.00 0.00 98 1021.6
20260902210544 56 0 0.0 0.0 0.00 0.00 0.00 98 1021.6
20260902210100 55 0 0.0 0.0 0.00 0.00 0.00 98 1021.7
20260902205544 55 0 0.0 0.0 0.00 0.00 0.00 98 1021.6
20260902205044 54 0 0.0 0.0 0.00 0.00 0.00 98 1021.5
20260902204554 52 0 0.0 0.0 0.00 0.00 0.00 97 1021.4
20260902204043 52 0 0.0 0.0 0.00 0.00 0.00 96 1021.4
20260902203543 51 0 0.0 0.0 0.00 0.00 0.00 96 1021.4
20260902203053 51 0 0.0 0.0 0.00 0.00 0.00 96 1021.3
20260902202544 52 0 0.0 0.0 0.00 0.00 0.00 96 1021.3
20260902202045 52 0 0.0 0.0 0.00 0.00 0.00 96 1021.1
20260902201633 52 0 0.0 0.0 0.00 0.00 0.00 96 1021.1
20260902201044 52 0 0.0 0.0 0.00 0.00 0.00 96 1021.2
20260902200544 52 0 0.0 0.0 0.00 0.00 0.00 96 1021.0
20260902200112 52 0 0.0 0.0 0.00 0.00 0.00 96 1020.9
20260902195545 52 0 0.0 0.0 0.00 0.00 0.00 96 1021.0
20260902195043 52 0 0.0 0.0 0.00 0.00 0.00 96 1021.0
20260902194600 52 0 0.0 0.0 0.00 0.00 0.00 96 1021.1
20260902194044 52 0 0.0 0.0 0.00 0.00 0.00 96 1020.9
20260902193544 52 0 0.0 0.0 0.00 0.00 0.00 96 1020.9
20260902193100 52 0 0.0 0.0 0.00 0.00 0.00 96 1020.9
20260902192543 52 0 0.0 0.0 0.00 0.00 0.00 96 1020.8
20260902192042 52 0 0.0 0.0 0.00 0.00 0.00 95 1020.7
20260902191604 52 0 0.0 0.0 0.00 0.00 0.00 96 1020.6
20260902191047 52 0 0.0 0.0 0.00 0.00 0.00 95 1020.5
20260902190543 52 0 0.0 0.0 0.00 0.00 0.00 95 1020.4
20260902190100 52 0 0.0 0.0 0.00 0.00 0.00 95 1020.4
20260902185542 52 0 0.0 0.0 0.00 0.00 0.00 95 1020.3
20260902185044 53 0 0.0 0.0 0.00 0.00 0.00 95 1020.3
20260902184556 53 0 0.0 0.0 0.00 0.00 0.00 96 1020.2
20260902184044 53 0 0.0 0.0 0.00 0.00 0.00 96 1020.3
20260902183544 52 0 0.0 0.0 0.00 0.00 0.00 95 1020.3
20260902183101 52 0 0.0 0.0 0.00 0.00 0.00 95 1020.4
20260902182544 52 0 0.0 0.0 0.00 0.00 0.00 95 1020.4
20260902182044 52 0 0.0 0.0 0.00 0.00 0.00 95 1020.2
20260902181613 53 0 0.0 0.0 0.00 0.00 0.00 95 1020.0
20260902181043 53 0 0.0 0.0 0.00 0.00 0.00 95 1020.0
20260902180544 53 0 0.0 0.0 0.00 0.00 0.00 95 1020.1
20260902175544 53 0 0.0 1.0 0.00 0.00 0.00 95 1020.2
20260902175047 53 0 0.0 1.0 0.00 0.00 0.00 95 1020.1
20260902174605 53 0 0.0 1.0 0.00 0.00 0.00 94 1020.0
20260902174045 53 308 0.0 1.0 0.00 0.00 0.00 94 1020.0
20260902173543 53 309 0.0 1.0 0.00 0.00 0.00 94 1020.1
20260902173056 53 309 1.0 1.0 0.00 0.00 0.00 94 1020.0
20260902172546 53 0 0.0 1.0 0.00 0.00 0.00 94 1020.1
20260902172044 53 0 0.0 1.0 0.00 0.00 0.00 94 1020.0
20260902171610 53 0 0.0 1.0 0.00 0.00 0.00 94 1020.0
20260902171043 53 311 1.0 1.0 0.00 0.00 0.00 94 1020.0
20260902170544 53 311 0.0 1.0 0.00 0.00 0.00 94 1020.0
20260902170103 53 0 0.0 1.0 0.00 0.00 0.00 94 1020.1
20260902165544 53 309 1.0 1.0 0.00 0.00 0.00 94 1020.1
20260902165043 54 0 0.0 0.0 0.00 0.00 0.00 93 1020.1
20260902164602 54 0 0.0 0.0 0.00 0.00 0.00 94 1020.1
20260902164042 54 0 0.0 0.0 0.00 0.00 0.00 94 1020.1
20260902163543 54 0 0.0 0.0 0.00 0.00 0.00 94 1020.1
20260902163055 54 0 0.0 0.0 0.00 0.00 0.00 93 1020.1
20260902162544 54 0 0.0 0.0 0.00 0.00 0.00 93 1020.2
20260902162044 54 0 0.0 0.0 0.00 0.00 0.00 93 1020.3
20260902161601 54 0 0.0 0.0 0.00 0.00 0.00 93 1020.3
20260902161047 54 0 0.0 0.0 0.00 0.00 0.00 92 1020.3
20260902160547 55 0 0.0 0.0 0.00 0.00 0.00 92 1020.3
20260902160051 55 0 0.0 0.0 0.00 0.00 0.00 92 1020.3
20260902155541 55 0 0.0 0.0 0.00 0.00 0.00 92 1020.4
20260902155043 55 0 0.0 0.0 0.00 0.00 0.00 92 1020.5
20260902154612 55 0 0.0 0.0 0.00 0.00 0.00 91 1020.6
20260902154043 55 0 0.0 0.0 0.00 0.00 0.00 91 1020.6
20260902153542 55 0 0.0 1.0 0.00 0.00 0.00 91 1020.6
20260902153058 56 0 0.0 1.0 0.00 0.00 0.00 91 1020.5
20260902152546 56 311 0.0 1.0 0.00 0.00 0.00 91 1020.5
20260902152043 56 0 0.0 0.0 0.00 0.00 0.00 91 1020.7
20260902151618 56 0 0.0 0.0 0.00 0.00 0.00 91 1020.9
20260902151044 56 0 0.0 0.0 0.00 0.00 0.00 90 1020.9
20260902150543 56 0 0.0 0.0 0.00 0.00 0.00 90 1020.9
20260902150054 56 0 0.0 0.0 0.00 0.00 0.00 90 1021.0
20260902145544 56 0 0.0 0.0 0.00 0.00 0.00 90 1020.9
20260902145040 56 0 0.0 0.0 0.00 0.00 0.00 89 1020.9
20260902144558 56 0 0.0 0.0 0.00 0.00 0.00 89 1020.9
20260902144041 57 0 0.0 0.0 0.00 0.00 0.00 89 1021.1
20260902143545 57 0 0.0 0.0 0.00 0.00 0.00 89 1020.9
20260902143100 57 0 0.0 0.0 0.00 0.00 0.00 88 1020.8
20260902142543 57 0 0.0 1.0 0.00 0.00 0.00 88 1020.9
20260902142043 58 0 0.0 2.0 0.00 0.00 0.00 88 1020.9
20260902141604 58 311 0.0 2.0 0.00 0.00 0.00 88 1020.8
20260902141043 58 315 0.0 1.0 0.00 0.00 0.00 88 1020.8
20260902140544 58 329 0.0 1.0 0.00 0.00 0.00 88 1020.9
20260902135543 58 0 0.0 1.0 0.00 0.00 0.00 87 1020.9
20260902135043 58 0 0.0 1.0 0.00 0.00 0.00 87 1021.0
20260902134616 59 0 0.0 1.0 0.00 0.00 0.00 86 1021.0
20260902134043 59 307 0.0 1.0 0.00 0.00 0.00 85 1021.1
20260902133543 59 0 0.0 1.0 0.00 0.00 0.00 85 1021.1
20260902133103 60 0 0.0 1.0 0.00 0.00 0.00 84 1021.1
20260902132543 60 0 0.0 1.0 0.00 0.00 0.00 85 1021.1
20260902132043 60 0 0.0 1.0 0.00 0.00 0.00 85 1021.0
20260902131602 60 0 0.0 1.0 0.00 0.00 0.00 84 1020.9
20260902131047 60 0 0.0 0.0 0.00 0.00 0.00 84 1021.0
20260902130545 60 0 0.0 0.0 0.00 0.00 0.00 83 1020.9
20260902130103 60 0 0.0 0.0 0.00 0.00 0.00 83 1021.1
20260902125545 61 0 0.0 0.0 0.00 0.00 0.00 82 1021.0
20260902125044 61 0 0.0 2.0 0.00 0.00 0.00 81 1021.2
20260902124605 62 0 0.0 2.0 0.00 0.00 0.00 81 1021.2
20260902124043 62 251 0.0 0.0 0.00 0.00 0.00 80 1021.4
20260902123543 63 0 0.0 0.0 0.00 0.00 0.00 79 1021.4
20260902123100 63 0 0.0 3.0 0.00 0.00 0.00 78 1021.3
20260902122543 64 0 0.0 4.0 0.00 0.00 0.00 78 1021.1
20260902122044 64 233 0.0 4.0 0.00 0.00 0.00 77 1021.0
20260902121613 64 255 0.0 3.0 0.00 0.00 0.00 77 1021.0
20260902121044 64 0 0.0 6.0 0.00 0.00 0.00 77 1020.9
20260902120544 64 0 1.0 6.0 0.00 0.00 0.00 77 1020.9
20260902115544 64 0 0.0 3.0 0.00 0.00 0.00 77 1020.9
20260902115046 65 297 0.0 3.0 0.00 0.00 0.00 77 1020.8
20260902114603 65 0 1.0 4.0 0.00 0.00 0.00 77 1020.8
20260902114043 65 0 0.0 4.0 0.00 0.00 0.00 77 1020.8
20260902113544 65 0 0.0 8.0 0.00 0.00 0.00 77 1020.8
20260902113058 65 198 0.0 8.0 0.00 0.00 0.00 77 1020.8
20260902112545 65 0 0.0 5.0 0.00 0.00 0.00 78 1020.8
20260902112043 65 0 1.0 5.0 0.00 0.00 0.00 77 1020.6
20260902111600 65 0 1.0 4.0 0.00 0.00 0.00 77 1020.6
20260902111043 65 273 0.0 5.0 0.00 0.00 0.00 77 1020.7
20260902110543 65 0 0.0 7.0 0.00 0.00 0.00 77 1020.7
20260902105543 65 0 1.0 7.0 0.00 0.00 0.00 77 1020.8
20260902105045 65 0 1.0 7.0 0.00 0.00 0.00 77 1020.9
20260902104558 65 0 1.0 7.0 0.00 0.00 0.00 77 1020.8
20260902104043 65 313 1.0 7.0 0.00 0.00 0.00 77 1020.8
20260902103544 65 269 1.0 4.0 0.00 0.00 0.00 77 1020.8
20260902103108 65 178 1.0 6.0 0.00 0.00 0.00 77 1020.7
20260902102543 66 338 0.0 6.0 0.00 0.00 0.00 77 1020.7
20260902102043 66 349 2.0 6.0 0.00 0.00 0.00 77 1020.6
20260902101601 66 0 1.0 5.0 0.00 0.00 0.00 77 1020.6
20260902101042 66 231 0.0 6.0 0.00 0.00 0.00 77 1020.6
20260902100544 66 263 2.0 6.0 0.00 0.00 0.00 77 1020.6
20260902100059 66 0 1.0 10.0 0.00 0.00 0.00 77 1020.5
20260902095544 66 0 1.0 10.0 0.00 0.00 0.00 77 1020.5
20260902095043 66 352 1.0 5.0 0.00 0.00 0.00 77 1020.4
20260902094559 67 127 1.0 7.0 0.00 0.00 0.00 77 1020.3
20260902094043 67 349 1.0 7.0 0.00 0.00 0.00 77 1020.4
20260902093543 67 301 1.0 13.0 0.00 0.00 0.00 77 1020.3
20260902093138 67 289 2.0 13.0 0.00 0.00 0.00 76 1020.2
20260902092543 67 257 3.0 13.0 0.00 0.00 0.00 76 1020.2
20260902092045 67 0 2.0 9.0 0.00 0.00 0.00 76 1020.2
20260902091602 67 60 2.0 8.0 0.00 0.00 0.00 76 1020.2
20260902091042 67 167 2.0 7.0 0.00 0.00 0.00 76 1020.2
20260902090543 67 323 1.0 9.0 0.00 0.00 0.00 76 1020.2
20260902090105 67 0 1.0 9.0 0.00 0.00 0.00 75 1020.1
20260902085542 67 338 2.0 8.0 0.00 0.00 0.00 75 1020.1
20260902085043 68 321 2.0 8.0 0.00 0.00 0.00 74 1020.1
20260902084603 68 274 1.0 8.0 0.00 0.00 0.00 74 1020.1
20260902084043 68 229 2.0 8.0 0.00 0.00 0.00 74 1020.0
20260902083544 68 129 1.0 6.0 0.00 0.00 0.00 75 1019.9
20260902083059 68 68 2.0 6.0 0.00 0.00 0.00 74 1019.9
20260902082543 68 0 1.0 5.0 0.00 0.00 0.00 75 1019.9